Appleton, MN

12:33 AM CST on December 12, 2019 (GMT -0600)
Appleton Municipal

Weather History for KAQP - August, 2019

Change the Weather History Date:

Thursday, August 22, 2019

  Actual Average Record
Temperature  
Mean Temperature 62 °F -  
Max Temperature 75 °F 77 °F 87 °F (2010)
Min Temperature 48 °F 55 °F 33 °F (2002)
Degree Days  
Heating Degree Days 4    
Growing Degree Days 12 (Base 50)    
Moisture  
Dew Point 50 °F    
Average Humidity 67    
Maximum Humidity 94    
Minimum Humidity 38    
Precipitation  
Precipitation 0.00 in - - ()
Sea Level Pressure  
Sea Level Pressure 30.08 in    
Wind  
Wind Speed 0 mph (SE)    
Max Wind Speed 7 mph    
Max Gust Speed -    
Visibility 10 miles    
Events Fog    
Averages and records for this station are not official NWS values.
T = Trace of Precipitation, MM = Missing Value Source: NWS Daily Summary

Daily Weather History Graph

Daily Weather History Graph

Search for Another Location

Airport or City:

Astronomy

Aug. 22, 2019 Rise Set
Actual Time 6:33 AM CDT 8:19 PM CDT
Civil Twilight 6:02 AM CDT 8:50 PM CDT
Nautical Twilight 5:23 AM CDT 9:28 PM CDT
Astronomical Twilight 4:42 AM CDT 10:10 PM CDT
Moon 11:50 PM CDT (8/22) 1:28 PM CDT (8/22)
Length of Visible Light 14h 48m
Length of Day
13h 46m
Waning Gibbous, 59% of the Moon is Illuminated
Aug 22
Waning Gibbous
Aug 23
Last Quarter
Aug 30
New
Sep 5
First Quarter
Sep 13
Full

Hourly Weather History & Observations

Time (CDT) Temp. Dew Point Humidity Pressure Visibility Wind Dir Wind Speed Gust Speed Precip Events Conditions
12:11 AM 57.2 °F 51.8 °F 82% 30.08 in 10.0 mi Calm Calm - N/A   Clear
12:32 AM 55.4 °F 51.8 °F 88% 30.08 in 10.0 mi Calm Calm - N/A   Clear
12:51 AM 55.4 °F 51.8 °F 88% 30.08 in 10.0 mi Calm Calm - N/A   Clear
1:11 AM 53.6 °F 50.0 °F 88% 30.09 in 10.0 mi Calm Calm - N/A   Clear
1:32 AM 55.4 °F 51.8 °F 88% 30.09 in 10.0 mi Calm Calm - N/A   Clear
1:51 AM 53.6 °F 50.0 °F 88% 30.09 in 10.0 mi Calm Calm - N/A   Clear
2:11 AM 53.6 °F 50.0 °F 88% 30.08 in 10.0 mi Calm Calm - N/A   Clear
2:31 AM 51.8 °F 48.2 °F 88% 30.08 in 10.0 mi Calm Calm - N/A   Clear
2:51 AM 51.8 °F 48.2 °F 88% 30.08 in 10.0 mi Calm Calm - N/A   Clear
3:11 AM 53.6 °F 50.0 °F 88% 30.07 in 10.0 mi Calm Calm - N/A   Clear
3:31 AM 53.6 °F 48.2 °F 82% 30.07 in 10.0 mi Calm Calm - N/A   Clear
3:52 AM 51.8 °F 48.2 °F 88% 30.07 in 10.0 mi Calm Calm - N/A   Clear
4:12 AM 51.8 °F 48.2 °F 88% 30.07 in 10.0 mi Calm Calm - N/A   Clear
4:31 AM 51.8 °F 48.2 °F 88% 30.07 in 10.0 mi Calm Calm - N/A   Clear
4:51 AM 51.8 °F 48.2 °F 88% 30.07 in 10.0 mi Calm Calm - N/A   Clear
5:31 AM 48.2 °F 46.4 °F 93% 30.07 in 10.0 mi Calm Calm - N/A   Clear
5:51 AM 50.0 °F 46.4 °F 87% 30.07 in 10.0 mi Calm Calm - N/A   Clear
6:12 AM 48.2 °F 46.4 °F 93% 30.08 in 10.0 mi Calm Calm - N/A   Clear
6:31 AM 50.0 °F 46.4 °F 87% 30.08 in 10.0 mi Calm Calm - N/A   Clear
6:51 AM 48.2 °F 46.4 °F 93% 30.09 in 7.0 mi Calm Calm - N/A   Clear
7:12 AM 48.2 °F 46.4 °F 93% 30.09 in 0.2 mi Calm Calm - N/A Fog Fog
7:31 AM 51.8 °F 48.2 °F 88% 30.09 in 10.0 mi Calm Calm - N/A   Clear
7:51 AM 53.6 °F 51.8 °F 94% 30.09 in 10.0 mi Calm Calm - N/A   Clear
8:11 AM 55.4 °F 53.6 °F 94% 30.10 in 10.0 mi Calm Calm - N/A   Clear
8:31 AM 57.2 °F 53.6 °F 88% 30.10 in 10.0 mi Calm Calm - N/A   Clear
8:51 AM 60.8 °F 53.6 °F 77% 30.10 in 10.0 mi Calm Calm - N/A   Clear
9:11 AM 62.6 °F 53.6 °F 72% 30.10 in 10.0 mi Calm Calm - N/A   Clear
9:52 AM 64.4 °F 53.6 °F 68% 30.10 in 10.0 mi Calm Calm - N/A   Clear
10:11 AM 66.2 °F 53.6 °F 64% 30.10 in 10.0 mi Calm Calm - N/A   Clear
10:31 AM 68.0 °F 51.8 °F 56% 30.10 in 10.0 mi Calm Calm - N/A   Clear
10:52 AM 69.8 °F 51.8 °F 53% 30.10 in 10.0 mi Calm Calm - N/A   Clear
11:11 AM 71.6 °F 51.8 °F 50% 30.10 in 10.0 mi Calm Calm - N/A   Clear
11:32 AM 71.6 °F 50.0 °F 46% 30.10 in 10.0 mi Calm Calm - N/A   Clear
11:51 AM 71.6 °F 50.0 °F 46% 30.09 in 10.0 mi SSE 5.8 mph - N/A   Clear
12:12 PM 71.6 °F 51.8 °F 50% 30.09 in 10.0 mi Calm Calm - N/A   Clear
12:31 PM 73.4 °F 51.8 °F 47% 30.09 in 10.0 mi Calm Calm - N/A   Clear
12:51 PM 73.4 °F 50.0 °F 44% 30.09 in 10.0 mi ESE 5.8 mph - N/A   Clear
1:12 PM 73.4 °F 50.0 °F 44% 30.09 in 10.0 mi Calm Calm - N/A   Clear
1:31 PM 73.4 °F 50.0 °F 44% 30.08 in 10.0 mi Calm Calm - N/A   Clear
2:12 PM 73.4 °F 48.2 °F 41% 30.09 in 10.0 mi Calm Calm - N/A   Scattered Clouds
2:31 PM 73.4 °F 50.0 °F 44% 30.08 in 10.0 mi Calm Calm - N/A   Scattered Clouds
2:51 PM 75.2 °F 48.2 °F 38% 30.08 in 10.0 mi Calm Calm - N/A   Mostly Cloudy
3:11 PM 75.2 °F 48.2 °F 38% 30.08 in 10.0 mi Calm Calm - N/A   Scattered Clouds
3:31 PM 75.2 °F 48.2 °F 38% 30.07 in 10.0 mi Calm Calm - N/A   Clear
3:52 PM 73.4 °F 50.0 °F 44% 30.07 in 10.0 mi Calm Calm - N/A   Mostly Cloudy
4:11 PM 73.4 °F 50.0 °F 44% 30.06 in 10.0 mi Calm Calm - N/A   Scattered Clouds
4:31 PM 75.2 °F 48.2 °F 38% 30.06 in 10.0 mi ESE 3.5 mph - N/A   Scattered Clouds
4:51 PM 75.2 °F 50.0 °F 41% 30.06 in 10.0 mi Calm Calm - N/A   Mostly Cloudy
5:11 PM 75.2 °F 48.2 °F 38% 30.06 in 10.0 mi Calm Calm - N/A   Scattered Clouds
5:31 PM 75.2 °F 48.2 °F 38% 30.06 in 10.0 mi Calm Calm - N/A   Clear
5:51 PM 75.2 °F 48.2 °F 38% 30.05 in 10.0 mi Calm Calm - N/A   Scattered Clouds
6:11 PM 73.4 °F 50.0 °F 44% 30.05 in 10.0 mi Calm Calm - N/A   Scattered Clouds
6:31 PM 73.4 °F 51.8 °F 47% 30.05 in 10.0 mi Calm Calm - N/A   Clear
6:51 PM 73.4 °F 51.8 °F 47% 30.05 in 10.0 mi Calm Calm - N/A   Clear
7:11 PM 71.6 °F 51.8 °F 50% 30.05 in 10.0 mi Calm Calm - N/A   Clear
7:31 PM 71.6 °F 51.8 °F 50% 30.06 in 10.0 mi Calm Calm - N/A   Clear
7:51 PM 68.0 °F 53.6 °F 60% 30.06 in 7.0 mi Calm Calm - N/A   Clear
8:11 PM 66.2 °F 53.6 °F 64% 30.07 in 10.0 mi Calm Calm - N/A   Clear
8:31 PM 64.4 °F 51.8 °F 64% 30.07 in 10.0 mi Calm Calm - N/A   Clear
8:51 PM 62.6 °F 51.8 °F 68% 30.08 in 10.0 mi Calm Calm - N/A   Clear
9:11 PM 60.8 °F 51.8 °F 72% 30.09 in 10.0 mi Calm Calm - N/A   Clear
9:31 PM 60.8 °F 51.8 °F 72% 30.10 in 10.0 mi Calm Calm - N/A   Clear
9:51 PM 60.8 °F 51.8 °F 72% 30.10 in 10.0 mi Calm Calm - N/A   Clear
10:11 PM 59.0 °F 51.8 °F 77% 30.11 in 10.0 mi Calm Calm - N/A   Clear
10:51 PM 59.0 °F 51.8 °F 77% 30.11 in 10.0 mi Calm Calm - N/A   Clear
11:11 PM 60.8 °F 51.8 °F 72% 30.12 in 10.0 mi Calm Calm - N/A   Clear
11:31 PM 59.0 °F 51.8 °F 77% 30.12 in 10.0 mi ESE 6.9 mph - N/A   Clear
11:51 PM 59.0 °F 51.8 °F 77% 30.12 in 10.0 mi ESE 5.8 mph - N/A   Clear